Wetterdaten: Woche 22.10.12 - 28.10.12 (KW43)
Datum Zeit Temperatur Luftfeuchte Luftdruck Niederschlag Windrichtung Sonnenschein Solar Wind
22.10.2012 00:00 9,5 C 97 % 1017,9 hPa 0,0 l/m NO 0,00 h 0 W/m 8,2 km/h (2 Bft)
22.10.2012 01:00 9,4 C 97 % 1017,7 hPa 0,0 l/m NO 0,00 h 0 W/m 7,1 km/h (2 Bft)
22.10.2012 02:00 9,3 C 98 % 1017,6 hPa 0,0 l/m NO 0,00 h 0 W/m 5,3 km/h (1 Bft)
22.10.2012 03:00 9,3 C 98 % 1017,7 hPa 0,0 l/m NO 0,00 h 0 W/m 7,4 km/h (2 Bft)
22.10.2012 04:00 9,1 C 98 % 1017,6 hPa 0,0 l/m NO 0,00 h 0 W/m 8,2 km/h (2 Bft)
22.10.2012 05:00 8,8 C 98 % 1017,9 hPa 0,0 l/m NO 0,00 h 0 W/m 8,5 km/h (2 Bft)
22.10.2012 06:00 8,7 C 98 % 1018,0 hPa 0,0 l/m N-NO 0,00 h 0 W/m 6,7 km/h (2 Bft)
22.10.2012 07:00 8,6 C 98 % 1018,2 hPa 0,2 l/m NO 0,00 h 5 W/m 6,1 km/h (2 Bft)
22.10.2012 08:00 8,3 C 98 % 1018,6 hPa 0,0 l/m NO 0,00 h 14 W/m 8,7 km/h (2 Bft)
22.10.2012 09:00 8,3 C 98 % 1018,9 hPa 0,0 l/m NO 0,00 h 33 W/m 6,4 km/h (2 Bft)
22.10.2012 10:00 8,4 C 99 % 1019,1 hPa 0,0 l/m NO 0,00 h 66 W/m 7,6 km/h (2 Bft)
22.10.2012 11:00 8,8 C 99 % 1019,4 hPa 0,0 l/m NO 0,00 h 82 W/m 6,1 km/h (2 Bft)
22.10.2012 12:00 9,1 C 99 % 1019,7 hPa 0,0 l/m NO 0,00 h 95 W/m 5,6 km/h (1 Bft)
22.10.2012 13:00 9,3 C 97 % 1019,7 hPa 0,0 l/m O-NO 0,00 h 95 W/m 7,9 km/h (2 Bft)
22.10.2012 14:00 9,6 C 96 % 1019,7 hPa 0,0 l/m O 0,00 h 98 W/m 6,8 km/h (2 Bft)
22.10.2012 15:00 10,1 C 94 % 1019,9 hPa 0,0 l/m O 0,00 h 84 W/m 4,9 km/h (1 Bft)
22.10.2012 16:00 9,9 C 93 % 1020,1 hPa 0,0 l/m O 0,00 h 58 W/m 5,6 km/h (1 Bft)
22.10.2012 17:00 9,8 C 92 % 1020,3 hPa 0,0 l/m O 0,00 h 25 W/m 4,7 km/h (1 Bft)
22.10.2012 18:00 9,4 C 92 % 1020,7 hPa 0,0 l/m O 0,00 h 5 W/m 6,5 km/h (2 Bft)
22.10.2012 19:00 8,9 C 93 % 1021,1 hPa 0,0 l/m NO 0,00 h 0 W/m 7,0 km/h (2 Bft)
22.10.2012 20:00 8,4 C 94 % 1021,1 hPa 0,0 l/m NO 0,00 h 0 W/m 8,7 km/h (2 Bft)
22.10.2012 21:00 8,0 C 95 % 1021,4 hPa 0,0 l/m O-NO 0,00 h 0 W/m 7,2 km/h (2 Bft)
22.10.2012 22:00 7,8 C 96 % 1021,8 hPa 0,0 l/m O-NO 0,00 h 0 W/m 6,0 km/h (2 Bft)
22.10.2012 23:00 7,5 C 96 % 1021,8 hPa 0,0 l/m O-NO 0,00 h 0 W/m 7,2 km/h (2 Bft)
23.10.2012 00:00 7,2 C 97 % 1021,8 hPa 0,0 l/m O-NO 0,00 h 0 W/m 5,5 km/h (1 Bft)
23.10.2012 01:00 7,2 C 97 % 1021,6 hPa 0,0 l/m O-NO 0,00 h 0 W/m 6,6 km/h (2 Bft)
23.10.2012 02:00 7,0 C 96 % 1021,3 hPa 0,0 l/m O-NO 0,00 h 0 W/m 7,8 km/h (2 Bft)
23.10.2012 03:00 7,1 C 95 % 1021,1 hPa 0,0 l/m O-NO 0,00 h 0 W/m 5,9 km/h (2 Bft)
23.10.2012 04:00 7,3 C 95 % 1020,9 hPa 0,0 l/m O-NO 0,00 h 0 W/m 9,7 km/h (2 Bft)
23.10.2012 05:00 7,3 C 94 % 1021,1 hPa 0,0 l/m O-NO 0,00 h 0 W/m 7,6 km/h (2 Bft)
23.10.2012 06:00 7,4 C 94 % 1021,0 hPa 0,0 l/m O-NO 0,00 h 0 W/m 9,0 km/h (2 Bft)
23.10.2012 07:00 7,4 C 94 % 1021,2 hPa 0,0 l/m NO 0,00 h 0 W/m 9,5 km/h (2 Bft)
23.10.2012 08:00 7,3 C 95 % 1021,6 hPa 0,0 l/m NO 0,00 h 8 W/m 7,7 km/h (2 Bft)
23.10.2012 09:00 7,3 C 95 % 1021,9 hPa 0,0 l/m O-NO 0,00 h 27 W/m 10,3 km/h (2 Bft)
23.10.2012 10:00 7,6 C 94 % 1022,3 hPa 0,0 l/m O-NO 0,00 h 44 W/m 10,6 km/h (2 Bft)
23.10.2012 11:00 7,9 C 93 % 1022,4 hPa 0,0 l/m NO 0,00 h 54 W/m 10,9 km/h (2 Bft)
23.10.2012 12:00 8,2 C 93 % 1022,3 hPa 0,0 l/m O-NO 0,00 h 62 W/m 12,9 km/h (3 Bft)
23.10.2012 13:00 8,3 C 92 % 1022,1 hPa 0,0 l/m NO 0,00 h 59 W/m 11,2 km/h (2 Bft)
23.10.2012 14:00 8,4 C 91 % 1021,9 hPa 0,0 l/m O 0,00 h 61 W/m 11,3 km/h (2 Bft)
23.10.2012 15:00 8,4 C 88 % 1021,8 hPa 0,0 l/m O-NO 0,00 h 64 W/m 11,1 km/h (2 Bft)
23.10.2012 16:00 8,3 C 88 % 1021,8 hPa 0,0 l/m NO 0,00 h 31 W/m 12,0 km/h (2 Bft)
23.10.2012 17:00 7,9 C 90 % 1021,8 hPa 0,0 l/m NO 0,00 h 10 W/m 11,6 km/h (2 Bft)
23.10.2012 18:00 7,6 C 92 % 1021,9 hPa 0,0 l/m O-NO 0,00 h 0 W/m 11,7 km/h (2 Bft)
23.10.2012 19:00 7,3 C 93 % 1022,1 hPa 0,0 l/m O-NO 0,00 h 0 W/m 10,9 km/h (2 Bft)
23.10.2012 20:00 7,1 C 95 % 1021,9 hPa 0,0 l/m O 0,00 h 0 W/m 11,2 km/h (2 Bft)
23.10.2012 21:00 6,9 C 95 % 1021,8 hPa 0,0 l/m O 0,00 h 0 W/m 12,1 km/h (2 Bft)
23.10.2012 22:00 6,9 C 95 % 1021,7 hPa 0,0 l/m O-SO 0,00 h 0 W/m 8,6 km/h (2 Bft)
23.10.2012 23:00 6,8 C 95 % 1021,6 hPa 0,0 l/m O 0,00 h 0 W/m 7,4 km/h (2 Bft)
24.10.2012 00:00 6,7 C 95 % 1021,4 hPa 0,0 l/m O 0,00 h 0 W/m 6,1 km/h (2 Bft)
24.10.2012 01:00 6,5 C 95 % 1021,1 hPa 0,0 l/m O 0,00 h 0 W/m 6,7 km/h (2 Bft)
24.10.2012 02:00 6,4 C 95 % 1020,7 hPa 0,0 l/m O 0,00 h 0 W/m 6,6 km/h (2 Bft)
24.10.2012 03:00 6,2 C 95 % 1020,4 hPa 0,0 l/m O 0,00 h 0 W/m 7,4 km/h (2 Bft)
24.10.2012 04:00 6,1 C 95 % 1020,0 hPa 0,0 l/m O 0,00 h 0 W/m 6,6 km/h (2 Bft)
24.10.2012 05:00 6,0 C 96 % 1019,9 hPa 0,0 l/m O 0,00 h 0 W/m 8,3 km/h (2 Bft)
24.10.2012 06:00 6,0 C 96 % 1019,8 hPa 0,0 l/m O 0,00 h 0 W/m 9,9 km/h (2 Bft)
24.10.2012 07:00 6,1 C 96 % 1019,7 hPa 0,0 l/m O-SO 0,00 h 0 W/m 8,0 km/h (2 Bft)
24.10.2012 08:00 6,2 C 96 % 1019,9 hPa 0,0 l/m O-SO 0,00 h 8 W/m 4,8 km/h (1 Bft)
24.10.2012 09:00 6,4 C 96 % 1019,9 hPa 0,0 l/m O-SO 0,00 h 22 W/m 3,9 km/h (1 Bft)
24.10.2012 10:00 6,7 C 96 % 1020,0 hPa 0,0 l/m O-SO 0,00 h 33 W/m 5,2 km/h (1 Bft)
24.10.2012 11:00 7,1 C 95 % 1019,8 hPa 0,0 l/m O-SO 0,00 h 56 W/m 8,2 km/h (2 Bft)
24.10.2012 12:00 7,4 C 93 % 1019,6 hPa 0,0 l/m O-SO 0,00 h 66 W/m 9,5 km/h (2 Bft)
24.10.2012 13:00 7,6 C 92 % 1018,9 hPa 0,0 l/m O-SO 0,00 h 67 W/m 7,9 km/h (2 Bft)
24.10.2012 14:00 8,3 C 90 % 1018,3 hPa 0,0 l/m O 0,00 h 76 W/m 9,1 km/h (2 Bft)
24.10.2012 15:00 8,6 C 90 % 1017,8 hPa 0,0 l/m O 0,00 h 53 W/m 6,3 km/h (2 Bft)
24.10.2012 16:00 9,0 C 88 % 1017,3 hPa 0,0 l/m O 0,00 h 43 W/m 7,7 km/h (2 Bft)
24.10.2012 17:00 8,9 C 87 % 1017,0 hPa 0,0 l/m O-NO 0,00 h 19 W/m 8,3 km/h (2 Bft)
24.10.2012 18:00 8,7 C 88 % 1017,2 hPa 0,0 l/m O 0,00 h 5 W/m 7,0 km/h (2 Bft)
24.10.2012 19:00 8,3 C 89 % 1017,4 hPa 0,0 l/m O 0,00 h 0 W/m 5,7 km/h (1 Bft)
24.10.2012 20:00 8,1 C 89 % 1017,4 hPa 0,0 l/m O 0,00 h 0 W/m 3,5 km/h (1 Bft)
24.10.2012 21:00 7,9 C 89 % 1017,4 hPa 0,0 l/m O 0,00 h 0 W/m 3,5 km/h (1 Bft)
24.10.2012 22:00 7,8 C 89 % 1017,5 hPa 0,0 l/m N 0,00 h 0 W/m 2,9 km/h (1 Bft)
24.10.2012 23:00 7,7 C 90 % 1017,2 hPa 0,0 l/m N 0,00 h 0 W/m 0,5 km/h (0 Bft)
25.10.2012 00:00 7,6 C 90 % 1017,1 hPa 0,0 l/m O 0,00 h 0 W/m 1,9 km/h (1 Bft)
25.10.2012 01:00 7,3 C 90 % 1017,2 hPa 0,0 l/m O 0,00 h 0 W/m 2,8 km/h (1 Bft)
25.10.2012 02:00 7,2 C 90 % 1016,8 hPa 0,0 l/m O 0,00 h 0 W/m 1,3 km/h (1 Bft)
25.10.2012 03:00 7,0 C 91 % 1016,7 hPa 0,0 l/m O-SO 0,00 h 0 W/m 3,9 km/h (1 Bft)
25.10.2012 04:00 6,7 C 91 % 1016,3 hPa 0,0 l/m SW 0,00 h 0 W/m 5,2 km/h (1 Bft)
25.10.2012 05:00 6,6 C 91 % 1016,0 hPa 0,0 l/m SW 0,00 h 0 W/m 5,7 km/h (1 Bft)
25.10.2012 06:00 6,6 C 92 % 1015,5 hPa 0,0 l/m N 0,00 h 0 W/m 3,5 km/h (1 Bft)
25.10.2012 07:00 6,8 C 93 % 1015,4 hPa 0,0 l/m W-SW 0,00 h 0 W/m 3,9 km/h (1 Bft)
25.10.2012 08:00 6,9 C 93 % 1015,4 hPa 0,0 l/m W-SW 0,00 h 12 W/m 5,7 km/h (1 Bft)
25.10.2012 09:00 6,9 C 92 % 1015,5 hPa 0,0 l/m W-SW 0,00 h 43 W/m 3,5 km/h (1 Bft)
25.10.2012 10:00 7,3 C 91 % 1015,2 hPa 0,0 l/m SW 0,00 h 86 W/m 5,3 km/h (1 Bft)
25.10.2012 11:00 8,1 C 89 % 1014,9 hPa 0,0 l/m SW 0,00 h 175 W/m 6,0 km/h (2 Bft)
25.10.2012 12:00 9,2 C 86 % 1014,8 hPa 0,0 l/m S-SO 0,83 h 440 W/m 5,9 km/h (2 Bft)
25.10.2012 13:00 10,9 C 82 % 1014,2 hPa 0,0 l/m S-SO 1,00 h 479 W/m 9,0 km/h (2 Bft)
25.10.2012 14:00 12,3 C 77 % 1013,3 hPa 0,0 l/m S 1,00 h 439 W/m 10,8 km/h (2 Bft)
25.10.2012 15:00 12,3 C 77 % 1012,5 hPa 0,0 l/m S-SW 1,00 h 346 W/m 14,8 km/h (3 Bft)
25.10.2012 16:00 11,4 C 80 % 1012,3 hPa 0,0 l/m S-SW 1,00 h 206 W/m 9,8 km/h (2 Bft)
25.10.2012 17:00 10,9 C 82 % 1012,1 hPa 0,0 l/m S-SW 0,58 h 60 W/m 5,9 km/h (2 Bft)
25.10.2012 18:00 9,7 C 84 % 1011,5 hPa 0,0 l/m S-SW 0,00 h 6 W/m 4,9 km/h (1 Bft)
25.10.2012 19:00 8,1 C 88 % 1011,6 hPa 0,0 l/m N 0,00 h 0 W/m 0,8 km/h (0 Bft)
25.10.2012 20:00 7,0 C 89 % 1011,6 hPa 0,0 l/m N 0,00 h 0 W/m 0,0 km/h (0 Bft)
25.10.2012 21:00 6,1 C 91 % 1011,3 hPa 0,0 l/m N 0,00 h 0 W/m 0,9 km/h (0 Bft)
25.10.2012 22:00 5,5 C 92 % 1011,1 hPa 0,0 l/m N 0,00 h 0 W/m 0,5 km/h (0 Bft)
25.10.2012 23:00 5,0 C 93 % 1010,9 hPa 0,0 l/m N 0,00 h 0 W/m 0,5 km/h (0 Bft)
26.10.2012 00:00 5,0 C 95 % 1010,6 hPa 0,0 l/m N 0,00 h 0 W/m 0,7 km/h (0 Bft)
26.10.2012 01:00 5,1 C 95 % 1010,3 hPa 0,0 l/m N 0,00 h 0 W/m 1,1 km/h (0 Bft)
26.10.2012 02:00 4,9 C 96 % 1010,0 hPa 0,0 l/m S-SW 0,00 h 0 W/m 1,7 km/h (1 Bft)
26.10.2012 03:00 4,5 C 96 % 1009,4 hPa 0,0 l/m N 0,00 h 0 W/m 1,6 km/h (1 Bft)
26.10.2012 04:00 4,0 C 96 % 1008,9 hPa 0,0 l/m S-SW 0,00 h 0 W/m 3,9 km/h (1 Bft)
26.10.2012 05:00 4,3 C 97 % 1008,6 hPa 0,0 l/m SW 0,00 h 0 W/m 4,8 km/h (1 Bft)
26.10.2012 06:00 5,6 C 98 % 1008,6 hPa 0,2 l/m N 0,00 h 0 W/m 8,7 km/h (2 Bft)
26.10.2012 07:00 6,5 C 98 % 1008,2 hPa 0,0 l/m NO 0,00 h 0 W/m 16,5 km/h (3 Bft)
26.10.2012 08:00 6,7 C 98 % 1008,4 hPa 0,0 l/m O-NO 0,00 h 7 W/m 14,6 km/h (3 Bft)
26.10.2012 09:00 6,8 C 99 % 1008,1 hPa 0,0 l/m O-NO 0,00 h 14 W/m 9,7 km/h (2 Bft)
26.10.2012 10:00 7,0 C 98 % 1007,8 hPa 0,0 l/m O-NO 0,00 h 17 W/m 9,0 km/h (2 Bft)
26.10.2012 11:00 7,0 C 98 % 1007,0 hPa 0,0 l/m O-NO 0,00 h 39 W/m 13,7 km/h (3 Bft)
26.10.2012 12:00 7,2 C 98 % 1005,9 hPa 0,0 l/m O 0,00 h 43 W/m 16,6 km/h (3 Bft)
26.10.2012 13:00 7,3 C 97 % 1004,8 hPa 0,0 l/m O 0,00 h 38 W/m 16,1 km/h (3 Bft)
26.10.2012 14:00 7,8 C 94 % 1003,4 hPa 0,0 l/m O-NO 0,00 h 54 W/m 13,6 km/h (3 Bft)
26.10.2012 15:00 8,2 C 92 % 1002,4 hPa 0,0 l/m O-SO 0,00 h 47 W/m 11,3 km/h (2 Bft)
26.10.2012 16:00 8,4 C 91 % 1001,4 hPa 0,0 l/m O 0,00 h 23 W/m 13,8 km/h (3 Bft)
26.10.2012 17:00 8,2 C 92 % 1000,2 hPa 0,0 l/m O-NO 0,00 h 9 W/m 11,6 km/h (2 Bft)
26.10.2012 18:00 7,9 C 93 % 999,4 hPa 0,0 l/m O-NO 0,00 h 0 W/m 12,6 km/h (3 Bft)
26.10.2012 19:00 7,6 C 95 % 998,5 hPa 0,0 l/m O-NO 0,00 h 0 W/m 6,8 km/h (2 Bft)
26.10.2012 20:00 7,6 C 96 % 997,6 hPa 0,0 l/m O-NO 0,00 h 0 W/m 7,5 km/h (2 Bft)
26.10.2012 21:00 7,4 C 96 % 996,6 hPa 0,0 l/m O-NO 0,00 h 0 W/m 6,5 km/h (2 Bft)
26.10.2012 22:00 7,4 C 97 % 995,9 hPa 0,0 l/m O-NO 0,00 h 0 W/m 5,5 km/h (1 Bft)
26.10.2012 23:00 7,4 C 97 % 994,9 hPa 0,0 l/m O-NO 0,00 h 0 W/m 3,5 km/h (1 Bft)
27.10.2012 00:00 7,4 C 97 % 994,0 hPa 0,0 l/m N 0,00 h 0 W/m 2,5 km/h (1 Bft)
27.10.2012 01:00 7,4 C 97 % 993,4 hPa 0,6 l/m O-NO 0,00 h 0 W/m 3,1 km/h (1 Bft)
27.10.2012 02:00 7,3 C 97 % 992,2 hPa 0,8 l/m O 0,00 h 0 W/m 5,2 km/h (1 Bft)
27.10.2012 03:00 7,1 C 97 % 990,9 hPa 0,6 l/m O-NO 0,00 h 0 W/m 8,7 km/h (2 Bft)
27.10.2012 04:00 6,7 C 97 % 990,0 hPa 0,2 l/m O-NO 0,00 h 0 W/m 10,7 km/h (2 Bft)
27.10.2012 05:00 6,3 C 97 % 989,4 hPa 1,4 l/m O-NO 0,00 h 0 W/m 9,3 km/h (2 Bft)
27.10.2012 06:00 6,1 C 97 % 989,0 hPa 1,8 l/m NO 0,00 h 0 W/m 8,2 km/h (2 Bft)
27.10.2012 07:00 5,4 C 97 % 989,0 hPa 1,0 l/m N-NO 0,00 h 0 W/m 14,2 km/h (3 Bft)
27.10.2012 08:00 4,6 C 97 % 989,8 hPa 0,8 l/m N-NO 0,00 h 9 W/m 17,4 km/h (3 Bft)
27.10.2012 09:00 3,4 C 96 % 990,8 hPa 1,6 l/m N 0,00 h 25 W/m 15,4 km/h (3 Bft)
27.10.2012 10:00 1,6 C 95 % 992,1 hPa 0,4 l/m N-NW 0,00 h 30 W/m 10,6 km/h (2 Bft)
27.10.2012 11:00 1,0 C 96 % 993,6 hPa 0,0 l/m N-NW 0,00 h 51 W/m 10,2 km/h (2 Bft)
27.10.2012 12:00 0,7 C 96 % 994,6 hPa 0,0 l/m N 0,00 h 61 W/m 11,6 km/h (2 Bft)
27.10.2012 13:00 0,6 C 97 % 995,3 hPa 0,6 l/m N-NW 0,00 h 52 W/m 9,7 km/h (2 Bft)
27.10.2012 14:00 0,6 C 97 % 996,2 hPa 4,2 l/m N 0,00 h 42 W/m 10,1 km/h (2 Bft)
27.10.2012 15:00 0,5 C 97 % 997,2 hPa 2,0 l/m N 0,00 h 36 W/m 9,5 km/h (2 Bft)
27.10.2012 16:00 0,3 C 97 % 998,4 hPa 1,2 l/m N 0,00 h 23 W/m 9,1 km/h (2 Bft)
27.10.2012 17:00 0,3 C 97 % 999,7 hPa 1,2 l/m N 0,00 h 10 W/m 0,0 km/h (0 Bft)
27.10.2012 18:00 0,2 C 97 % 1001,1 hPa 0,6 l/m N 0,00 h 0 W/m 0,0 km/h (0 Bft)
27.10.2012 19:00 -0,2 C 97 % 1002,5 hPa 0,0 l/m N 0,00 h 0 W/m 0,0 km/h (0 Bft)
27.10.2012 20:00 -0,6 C 97 % 1003,6 hPa 0,6 l/m N 0,00 h 0 W/m 0,0 km/h (0 Bft)
27.10.2012 21:00 -1,0 C 97 % 1004,7 hPa 0,4 l/m N 0,00 h 0 W/m 0,0 km/h (0 Bft)
27.10.2012 22:00 -1,2 C 97 % 1005,5 hPa 0,6 l/m N 0,00 h 0 W/m 0,0 km/h (0 Bft)
27.10.2012 23:00 -1,4 C 97 % 1006,0 hPa 0,4 l/m N 0,00 h 0 W/m 0,0 km/h (0 Bft)
28.10.2012 00:00 -1,6 C 98 % 1006,5 hPa 0,2 l/m N 0,00 h 0 W/m 0,0 km/h (0 Bft)
28.10.2012 01:00 -2,1 C 97 % 1007,1 hPa 0,2 l/m N 0,00 h 0 W/m 0,0 km/h (0 Bft)
28.10.2012 02:00 -2,3 C 98 % 1007,3 hPa 0,8 l/m N 0,00 h 0 W/m 0,0 km/h (0 Bft)
28.10.2012 03:00 -2,2 C 98 % 1007,7 hPa 0,0 l/m N 0,00 h 0 W/m 0,0 km/h (0 Bft)
28.10.2012 04:00 -2,2 C 98 % 1007,9 hPa 0,0 l/m N 0,00 h 0 W/m 0,0 km/h (0 Bft)
28.10.2012 05:00 -2,0 C 98 % 1008,0 hPa 0,4 l/m N 0,00 h 0 W/m 0,0 km/h (0 Bft)
28.10.2012 06:00 -2,0 C 98 % 1007,9 hPa 0,0 l/m N 0,00 h 0 W/m 0,0 km/h (0 Bft)
28.10.2012 07:00 -1,9 C 98 % 1008,6 hPa 0,2 l/m N 0,00 h 6 W/m 0,0 km/h (0 Bft)
28.10.2012 08:00 -1,7 C 98 % 1009,0 hPa 0,0 l/m N 0,00 h 12 W/m 0,0 km/h (0 Bft)
28.10.2012 09:00 -1,4 C 98 % 1009,8 hPa 0,0 l/m N 0,00 h 17 W/m 0,0 km/h (0 Bft)
28.10.2012 10:00 -0,9 C 98 % 1010,4 hPa 0,4 l/m N 0,00 h 19 W/m 0,0 km/h (0 Bft)
28.10.2012 11:00 -0,6 C 98 % 1010,1 hPa 0,4 l/m N 0,00 h 31 W/m 0,0 km/h (0 Bft)
28.10.2012 12:00 -0,3 C 98 % 1010,3 hPa 0,8 l/m NO 0,00 h 45 W/m 16,1 km/h (3 Bft)
28.10.2012 13:00 -0,1 C 98 % 1010,6 hPa 0,6 l/m O-NO 0,00 h 76 W/m 19,4 km/h (3 Bft)
28.10.2012 14:00 0,1 C 98 % 1010,6 hPa 0,0 l/m NO 0,00 h 67 W/m 16,6 km/h (3 Bft)
28.10.2012 15:00 0,1 C 98 % 1010,9 hPa 0,0 l/m NO 0,00 h 45 W/m 15,8 km/h (3 Bft)
28.10.2012 16:00 -0,1 C 98 % 1011,7 hPa 0,2 l/m NO 0,00 h 11 W/m 19,2 km/h (3 Bft)
28.10.2012 17:00 -0,2 C 98 % 1012,3 hPa 0,2 l/m NO 0,00 h 0 W/m 16,0 km/h (3 Bft)
28.10.2012 18:00 -0,1 C 98 % 1013,2 hPa 0,0 l/m NO 0,00 h 0 W/m 19,0 km/h (3 Bft)
28.10.2012 19:00 -0,1 C 98 % 1013,8 hPa 0,0 l/m O-NO 0,00 h 0 W/m 20,5 km/h (4 Bft)
28.10.2012 20:00 -0,2 C 98 % 1014,3 hPa 0,2 l/m N-NO 0,00 h 0 W/m 21,6 km/h (4 Bft)
28.10.2012 21:00 -0,4 C 98 % 1014,9 hPa 0,2 l/m N-NO 0,00 h 0 W/m 16,6 km/h (3 Bft)
28.10.2012 22:00 -0,6 C 98 % 1015,3 hPa 0,0 l/m NO 0,00 h 0 W/m 16,6 km/h (3 Bft)
28.10.2012 23:00 -0,7 C 98 % 1015,4 hPa 0,0 l/m NO 0,00 h 0 W/m 12,6 km/h (3 Bft)
Min-Datum _ 28.10.12 25.10.12 27.10.12 - - - - 22.10.12
_ Min-Zeit 01:55 14:40 06:55 - - - - 15:15
Minimum _ -2,3 C 75 % 988,8 hPa - - - - 0,0 km/h (0 Bft)
Max-Datum _ 25.10.12 26.10.12 23.10.12 27.10.12 - 25.10.12 25.10.12 28.10.12
_ Max-Zeit 14:55 20:50 10:45 14:05 - 12:10 13:20 13:30
Maximum _ 12,8 C 100 % 1022,5 hPa 4,2 l/m - 0,08 h 485 W/m 25,7 km/h
O-NO (4 Bft)
Durchschnitt _ 5,7 C 94 % 1012,2 hPa #26,2 l/m O-NO #5:25 h 65 W/m 7,4 km/h (2 Bft)